Change the Weather History Date:

Monday, November 28, 2011

  Actual Average Record
Temperature  
Mean Temperature 14 °F -  
Max Temperature 19 °F 28 °F 44 °F (1976)
Min Temperature 10 °F 13 °F -22 °F (1990)
Degree Days  
Heating Degree Days 50    
Moisture  
Dew Point 12 °F    
Average Humidity 90    
Maximum Humidity 100    
Minimum Humidity 79    
Precipitation  
Precipitation 0.00 in - - ()
Sea Level Pressure  
Sea Level Pressure 29.36 in    
Wind  
Wind Speed 5 mph (East)    
Max Wind Speed 9 mph    
Max Gust Speed -    
Visibility 9 miles    
Events      
Averages and records for this station are not official NWS values.
T = Trace of Precipitation, MM = Missing Value Source: NWS Daily Summary

Daily Weather History Graph

Daily Weather History Graph

Search for Another Location

Airport or City:

Trip Planner

Search our weather history database for the weather conditions in past years. The results will help you decide how hot, cold, wet, or windy it might be!

Date:

Astronomy

Nov. 28, 2011 Rise Set
Actual Time 9:36 AM AKST 4:07 PM AKST
Civil Twilight 8:42 AM AKST 5:01 PM AKST
Nautical Twilight 7:46 AM AKST 5:56 PM AKST
Astronomical Twilight 6:55 AM AKST 6:47 PM AKST
Moon 12:39 PM AKST (11/28) 8:24 PM AKST (11/28)
Length of Visible Light 8h 19m
Length of Day
6h 30m
Waxing Crescent, 17% of the Moon is Illuminated
Nov 28
Waxing Crescent
Dec 2
First Quarter
Dec 10
Full
Dec 17
Last Quarter
Dec 24
New

Hourly Weather History & Observations

Time (AKST) Temp. Windchill Dew Point Humidity Pressure Visibility Wind Dir Wind Speed Gust Speed Precip Events Conditions
12:16 AM 12.2 °F 0.7 °F 10.4 °F 92% 29.28 in 10.0 mi ESE 8.1 mph - N/A   Overcast
12:36 AM 12.2 °F -0.2 °F 10.4 °F 92% 29.27 in 10.0 mi ESE 9.2 mph - N/A   Overcast
12:56 AM 12.2 °F -0.2 °F 10.4 °F 92% 29.27 in 10.0 mi East 9.2 mph - N/A   Overcast
1:16 AM 12.2 °F 1.7 °F 10.4 °F 92% 29.27 in 10.0 mi ESE 6.9 mph - N/A   Overcast
1:36 AM 14.0 °F 2.9 °F 10.4 °F 86% 29.27 in 10.0 mi East 8.1 mph - N/A   Overcast
1:56 AM 14.0 °F 2.9 °F 10.4 °F 86% 29.27 in 10.0 mi ESE 8.1 mph - N/A   Overcast
2:16 AM 15.8 °F 4.2 °F 12.2 °F 86% 29.27 in 10.0 mi ESE 9.2 mph - N/A   Overcast
2:36 AM 15.8 °F 4.2 °F 12.2 °F 86% 29.27 in 10.0 mi ESE 9.2 mph - N/A   Overcast
2:56 AM 15.8 °F 7.2 °F 12.2 °F 86% 29.27 in 10.0 mi East 5.8 mph - N/A   Overcast
3:16 AM 15.8 °F 7.2 °F 12.2 °F 86% 29.27 in 10.0 mi East 5.8 mph - N/A   Overcast
3:36 AM 15.8 °F 7.2 °F 12.2 °F 86% 29.27 in 10.0 mi East 5.8 mph - N/A   Overcast
3:56 AM 15.8 °F 7.2 °F 12.2 °F 86% 29.27 in 10.0 mi East 5.8 mph - N/A   Overcast
4:16 AM 15.8 °F 6.1 °F 14.0 °F 93% 29.27 in 10.0 mi East 6.9 mph - N/A   Overcast
4:36 AM 15.8 °F 6.1 °F 12.2 °F 86% 29.27 in 10.0 mi East 6.9 mph - N/A   Overcast
4:56 AM 15.8 °F 8.6 °F 12.2 °F 86% 29.28 in 10.0 mi East 4.6 mph - N/A   Overcast
5:16 AM 15.8 °F 10.2 °F 12.2 °F 86% 29.28 in 10.0 mi ENE 3.5 mph - N/A   Mostly Cloudy
5:36 AM 15.8 °F 10.2 °F 12.2 °F 86% 29.28 in 10.0 mi ENE 3.5 mph - N/A   Mostly Cloudy
5:56 AM 14.0 °F - 10.4 °F 86% 29.29 in 10.0 mi Calm Calm - N/A   Overcast
6:16 AM 10.4 °F - 6.8 °F 85% 29.29 in 10.0 mi Calm Calm - N/A   Overcast
6:36 AM 10.4 °F - 8.6 °F 92% 29.30 in - Calm Calm - N/A   Overcast
6:56 AM 10.4 °F - 8.6 °F 92% 29.30 in - Calm Calm - N/A   Overcast
7:16 AM 10.4 °F - 6.8 °F 85% 29.31 in 10.0 mi Calm Calm - N/A   Overcast
7:36 AM 10.4 °F - 8.6 °F 92% 29.31 in 10.0 mi Calm Calm - N/A   Overcast
7:56 AM 10.4 °F - 8.6 °F 92% 29.32 in 10.0 mi Calm Calm - N/A   Overcast
8:16 AM 10.4 °F - 8.6 °F 92% 29.33 in 10.0 mi Calm Calm - N/A   Overcast
8:36 AM 10.4 °F 4.0 °F 6.8 °F 85% 29.33 in 10.0 mi SE 3.5 mph - N/A   Overcast
8:56 AM 12.2 °F 6.1 °F 10.4 °F 92% 29.34 in 10.0 mi SE 3.5 mph - N/A   Overcast
9:16 AM 12.2 °F - 12.2 °F 100% 29.35 in 10.0 mi Calm Calm - N/A   Overcast
9:36 AM 12.2 °F - 10.4 °F 92% 29.35 in 9.0 mi Calm Calm - N/A   Overcast
9:56 AM 15.8 °F 10.2 °F 10.4 °F 79% 29.36 in 8.0 mi East 3.5 mph - N/A   Overcast
10:16 AM 12.2 °F 6.1 °F 10.4 °F 92% 29.37 in 8.0 mi SE 3.5 mph - N/A   Overcast
10:36 AM 14.0 °F 6.5 °F 10.4 °F 86% 29.37 in 8.0 mi East 4.6 mph - N/A   Overcast
10:56 AM 14.0 °F 8.2 °F 12.2 °F 93% 29.38 in 9.0 mi East 3.5 mph - N/A   Overcast
11:16 AM 12.2 °F - 10.4 °F 92% 29.39 in 9.0 mi Calm Calm - N/A   Scattered Clouds
11:36 AM 12.2 °F 6.1 °F 8.6 °F 85% 29.40 in 8.0 mi East 3.5 mph - N/A   Clear
11:56 AM 12.2 °F 6.1 °F 10.4 °F 92% 29.41 in 9.0 mi East 3.5 mph - N/A   Clear
12:16 PM 12.2 °F 4.3 °F 12.2 °F 100% 29.42 in 8.0 mi East 4.6 mph - N/A   Clear
12:36 PM 14.0 °F 5.1 °F 12.2 °F 93% 29.43 in 8.0 mi East 5.8 mph - N/A   Scattered Clouds
12:56 PM 14.0 °F 6.5 °F 12.2 °F 93% 29.43 in 8.0 mi ENE 4.6 mph - N/A   Overcast
1:16 PM 14.0 °F 8.2 °F 10.4 °F 86% 29.43 in 8.0 mi East 3.5 mph - N/A   Overcast
1:36 PM 15.8 °F 8.6 °F 12.2 °F 86% 29.43 in 8.0 mi East 4.6 mph - N/A   Overcast
1:56 PM 17.6 °F 10.7 °F 15.8 °F 93% 29.44 in 8.0 mi ENE 4.6 mph - N/A   Overcast
2:16 PM 17.6 °F 10.7 °F 14.0 °F 86% 29.44 in 8.0 mi East 4.6 mph - N/A   Overcast
2:36 PM 17.6 °F 10.7 °F 12.2 °F 79% 29.45 in 8.0 mi East 4.6 mph - N/A   Overcast
2:56 PM 17.6 °F 10.7 °F 15.8 °F 93% 29.46 in 8.0 mi ENE 4.6 mph - N/A   Overcast
3:16 PM 17.6 °F 9.3 °F 17.6 °F 100% 29.46 in 9.0 mi East 5.8 mph - N/A   Overcast
3:36 PM 17.6 °F 9.3 °F 15.8 °F 93% 29.47 in 8.0 mi East 5.8 mph - N/A   Overcast
3:56 PM 17.6 °F 9.3 °F 15.8 °F 93% 29.47 in 8.0 mi East 5.8 mph - N/A   Overcast
4:16 PM 17.6 °F 9.3 °F 15.8 °F 93% 29.48 in 8.0 mi East 5.8 mph - N/A   Overcast
4:36 PM 17.6 °F 9.3 °F 15.8 °F 93% 29.48 in 8.0 mi East 5.8 mph - N/A   Overcast
4:56 PM 19.4 °F 12.8 °F 15.8 °F 86% 29.49 in 10.0 mi East 4.6 mph - N/A   Overcast
5:16 PM 19.4 °F 12.8 °F 17.6 °F 93% 29.49 in 10.0 mi East 4.6 mph - N/A   Overcast
5:36 PM 19.4 °F 10.4 °F 17.6 °F 93% 29.50 in 10.0 mi ESE 6.9 mph - N/A   Overcast
5:56 PM 19.4 °F 11.5 °F 15.8 °F 86% 29.50 in 10.0 mi East 5.8 mph - N/A   Overcast
6:16 PM 19.4 °F 11.5 °F 17.6 °F 93% 29.52 in 10.0 mi ESE 5.8 mph - N/A   Overcast
6:36 PM 19.4 °F 11.5 °F 17.6 °F 93% 29.53 in 10.0 mi ESE 5.8 mph - N/A   Overcast
6:56 PM 19.4 °F 12.8 °F 17.6 °F 93% 29.54 in 10.0 mi East 4.6 mph - N/A   Overcast
7:16 PM 19.4 °F 12.8 °F 17.6 °F 93% 29.55 in 10.0 mi East 4.6 mph - N/A   Overcast
7:36 PM 19.4 °F 11.5 °F 17.6 °F 93% 29.55 in 10.0 mi East 5.8 mph - N/A   Overcast
8:16 PM 19.4 °F 12.8 °F 15.8 °F 86% 29.57 in 10.0 mi ESE 4.6 mph - N/A   Overcast
8:36 PM 19.4 °F 11.5 °F 17.6 °F 93% 29.58 in 10.0 mi ESE 5.8 mph - N/A   Overcast
8:56 PM 19.4 °F 12.8 °F 17.6 °F 93% 29.59 in 10.0 mi East 4.6 mph - N/A   Overcast
9:16 PM 19.4 °F 14.3 °F 17.6 °F 93% 29.60 in 10.0 mi East 3.5 mph - N/A   Overcast
9:36 PM 19.4 °F 14.3 °F 17.6 °F 93% 29.60 in 10.0 mi SSE 3.5 mph - N/A   Mostly Cloudy
9:56 PM 23.0 °F 15.8 °F 17.6 °F 80% 29.61 in 10.0 mi SSW 5.8 mph - N/A   Clear
10:16 PM 19.4 °F - 17.6 °F 93% 29.62 in 10.0 mi Calm Calm - N/A   Clear
10:36 PM 15.8 °F - 15.8 °F 100% 29.63 in 10.0 mi Calm Calm - N/A   Clear
10:56 PM 12.2 °F - 10.4 °F 92% 29.64 in 9.0 mi Calm Calm - N/A   Clear
11:16 PM 12.2 °F 6.1 °F 8.6 °F 85% 29.65 in 10.0 mi South 3.5 mph - N/A   Mostly Cloudy
11:36 PM 15.8 °F 10.2 °F 12.2 °F 86% 29.66 in 9.0 mi South 3.5 mph - N/A   Overcast
11:56 PM 21.2 °F 16.4 °F 17.6 °F 86% 29.67 in 10.0 mi SSE 3.5 mph - N/A   Overcast